Volver al catálogo

COSMOS 1794

ActivoNavegaciónLEO
NORAD 17138·PAYLOAD·🇷🇺 Russia

Lanzado Nov 21, 1986 desde Plesetsk Cosmodrome

Loading…

Próximos Pases (próximas 24 horas)

TLE

ActualizadoSource: Space-Track

Época: Sep 14, 2026, 13:22 UTC

1 17138U 86092A   26257.55748130 -.00000001  00000-0  10563-3 0  9990
2 17138  74.0184 353.7585 0020981 177.3551 193.8533 12.45671172810435

Sigue COSMOS 1794 en tiempo real con AllMySat

Download on the App Store